Location: Tamazert
(32.6352°N, 5.2072°W)
Time: 16:53:30
(UTC+00:00)

Vanguard 3 - Pass Details

Date: 09 October 2022
Orbit: 509 x 3255 km, 33.3° (Epoch: 08 December)

Event Time Altitude Azimuth Distance (km) Brightness Sun altitude
Rises 12:51:33 0° 274° (W) 3,428 10.5 49.6°
Reaches altitude 10° 12:53:56 10° 262° (W) 2,752 10.2 49.5°
Maximum altitude 12:59:46 30° 203° (SSW) 2,230 11.1 49.1°
Drops below altitude 10° 13:09:02 10° 148° (SSE) 4,453 11.4 48.4°
Sets 13:14:10 0° 140° (SE) 5,952 11.8 47.9°
